7 * 24
多渠道服务支持
STARLINK-37758(NORAD编号:69219)是SpaceX星链(Starlink)互联网卫星星座中的一员,属于低轨通信卫星。星链项目旨在构建全球覆盖的天基互联网系统,该卫星通过低轨组网为地面用户提供高速互联网接入服务,支持传统终端及手机直连通信等业务。卫星运行在近地轨道,轨道周期约90余分钟,采用相控阵天线技术,部分星链卫星配备激光星间链路,可实现高速星间通信,单颗卫星可覆盖地面数十至百公里范围,助力填补全球网络覆盖盲区,提升偏远地区及特殊场景的互联网接入能力。
美国
(US)
| 数据来源 | 国际轨道数据 |
| 星历时间: | 2026-06-12T14:56:42+0800 14小时前 查看轨道信息 |
| 半长轴: | 6708.846km |
| 偏心率: | 0.0002785 |
| 轨道倾角: | 97.283° |
| 近地点辐角 | 195.535° |
| 升交点赤经 | 180.509° |
| 平近点角 | 164.583° |
| 近地点: | 328.84km |
| 远地点: | 332.578km |
| 周期: | 91.145分钟 |
| 每日圈数: | 15.799055 |